Home   Weather   Huddersfield   Past weeks

Flag for United Kingdom Past Weather in Huddersfield, England, United Kingdom — Yesterday and Last 2 Weeks

Now
50 °F

Scattered clouds.


Feels Like: 44 °F
Forecast: 37 / 51 °F
Wind: 16 mph from Northwest

Location: Leeds And Bradford

Current Time: Apr 27, 2017 at 12:24:09 pm

Latest Report: Apr 27, 2017 at 11:50 am


Visibility: N/A

Pressure: 29.98 "Hg

Humidity: 67%

Dew Point: 39 °F

Location of HuddersfieldLocation

Past Weather in Huddersfield — Graph

°F

Huddersfield Temperature Yesterday

Maximum temperature yesterday: 46 °F (at 2:20 pm)
Minimum temperature yesterday: 34 °F (at 5:20 am)
Average temperature yesterday: 39 °F

High & Low Weather Summary for the Past Weeks

 TemperatureHumidityPressure
High55 °F (Apr 20, 1:50 pm)100% (Apr 14, 7:20 am)30.60 "Hg (Apr 14, 7:20 am)
Low30 °F (Apr 18, 5:50 am)40% (Apr 24, 4:20 pm)29.83 "Hg (Apr 14, 7:20 pm)
Average44 °F79%30.17 "Hg
* Reported Apr 12 11:20 am — Apr 27 11:20 am, Huddersfield, Weather by CustomWeather, © 2017

Note: Actual official high and low records may vary slightly from our data, if they occured in-between our weather recording intervals... More about our weather records

Advertising

Huddersfield Weather History for the Previous 24 Hours

Scroll right to see more
 ConditionsComfort  
Time TempWeatherWind HumidityBarometerVisibility
11:20 am
Thu, Apr 27
48 °FSprinkles. Scattered clouds.15 mph71%29.98 "HgN/A
10:50 am48 °FSprinkles. Scattered clouds.18 mph71%30.01 "HgN/A
10:20 am46 °FScattered clouds.17 mph76%30.01 "HgN/A
9:50 am46 °FScattered clouds.15 mph76%30.01 "HgN/A
9:20 am45 °FScattered clouds.13 mph81%30.01 "HgN/A
8:50 am43 °FScattered clouds.13 mph87%30.01 "HgN/A
8:20 am41 °FPartly sunny.14 mph93%30.01 "HgN/A
7:50 am41 °FLight rain. Partly sunny.14 mph87%30.04 "HgN/A
7:20 am39 °FSprinkles. Partly sunny.15 mph87%30.04 "HgN/A
6:50 am39 °FLight rain. Partly sunny.10 mph87%30.04 "HgN/A
6:20 am39 °FScattered clouds.10 mph81%30.04 "HgN/A
5:50 am39 °FPassing clouds.8 mph81%30.04 "HgN/A
5:20 am37 °FPassing clouds.8 mph75%30.07 "HgN/A
4:50 am37 °FPassing clouds.7 mph75%30.07 "HgN/A
4:20 am37 °FClear.10 mph75%30.07 "Hg10 mi
3:50 am37 °FPassing clouds.9 mph75%30.07 "HgN/A
3:20 am37 °FClear.9 mph75%30.07 "Hg10 mi
2:50 am37 °FPassing clouds.9 mph75%30.07 "HgN/A
2:20 am37 °FClear.9 mph75%30.09 "Hg10 mi
1:50 am37 °FPassing clouds.8 mph81%30.09 "HgN/A
1:20 am37 °FClear.8 mph81%30.09 "Hg10 mi
12:50 am37 °FClear.7 mph87%30.09 "Hg10 mi
12:20 am37 °FClear.7 mph87%30.09 "Hg10 mi
11:50 pm
Wed, Apr 26
37 °FPassing clouds.6 mph87%30.12 "HgN/A
11:20 pm37 °FPassing clouds.6 mph81%30.12 "HgN/A
10:50 pm37 °FPassing clouds.5 mph87%30.12 "HgN/A
10:20 pm37 °FPassing clouds.3 mph87%30.12 "HgN/A
9:50 pm37 °FPassing clouds.5 mph81%30.12 "HgN/A
8:50 pm37 °FPassing clouds.3 mph81%30.12 "HgN/A
8:20 pm39 °FPassing clouds.2 mph75%30.09 "HgN/A
7:50 pm39 °FScattered clouds.6 mph75%30.09 "HgN/A
7:20 pm39 °FScattered showers. Scattered clouds.3 mph81%30.09 "HgN/A
6:50 pm43 °FPassing clouds.12 mph66%30.09 "HgN/A
6:20 pm43 °FPassing clouds.7 mph61%30.09 "HgN/A
5:50 pm43 °FScattered clouds.8 mph61%30.09 "HgN/A
5:20 pm43 °FScattered clouds.10 mph61%30.09 "HgN/A
4:50 pm45 °FScattered clouds.10 mph57%30.09 "HgN/A
4:20 pm45 °FScattered clouds.10 mph57%30.09 "HgN/A
3:50 pm45 °FScattered clouds.9 mph61%30.09 "HgN/A
3:20 pm45 °FSprinkles. Scattered clouds.12 mph46%30.09 "HgN/A
2:50 pm45 °FScattered showers. Scattered clouds.7 mph49%30.09 "HgN/A
2:20 pm46 °FScattered showers. Scattered clouds.12 mph50%30.09 "HgN/A
1:50 pm45 °FScattered showers. Scattered clouds.12 mph49%30.09 "HgN/A
1:20 pm43 °FMixture of precip. Scattered clouds.12 mph53%30.09 "HgN/A
12:50 pm43 °FScattered showers. Scattered clouds.10 mph57%30.09 "HgN/A
12:20 pm45 °FScattered clouds.12 mph57%30.09 "HgN/A
Weather by CustomWeather, © 2017

See weather overviewHow to use our weather pages